www.pogodaiklimat.ru

Погода и климат >> Архив погоды >> Ирак >> Эль-Фао


ПОГОДА в Эль-Фао

  • Прогноз погоды в Эль-Фао
  • Монитор погоды в Эль-Фао

АРХИВ ПОГОДЫ в Эль-Фао

Время (UTC), дата Ветер
(напр.,м/с)
 
Видим.   Явления Облачность Т
(С)
Тd
(С)
f
(%)
Тe
(С)
Тes
(С)
Комфортность P
(гПа)
Po
(гПа)
Тmin
(С)
Tmax
(С)
R
(мм)
R24
(мм)
S
(см)
12 13.06 СЗ 8 10 км ясно +42.8 +3.5 9 +40 +42 очень
жарко
1002.4 1002.2
15 13.06 СЗ 4 10 км ясно +40.8 +6.9 13 +38 +39 очень
жарко
1002.4 1002.2
00 14.06 З 2 10 км ясно +32.8 +7.7 21 +31 +31 жарко 1002.4 1002.2
03 14.06 З 2 10 км ясно +31.0 +11.1 29 +31 +32 жарко 1003.0 1002.8
06 14.06 СЗ 2 10 км ясно +37.2 +10.1 19 +36 +50 очень
жарко
1003.8 1003.6 +29.5
09 14.06 СЗ 2 10 км ясно +43.5 +9.2 13 +42 +64 опасность
перегрева
1002.8 1002.6
12 14.06 СЗ 2 10 км ясно +45.2 +7.3 11 +43 +55 опасность
перегрева
1001.4 1001.2
15 14.06 С 2 10 км ясно +43.6 +9.7 13 +42 +42 опасность
перегрева
1000.7 1000.5
18 14.06 СЗ 2 10 км ясно +39.4 +8.4 15 +37 +37 очень
жарко
1002.2 1002.0 +45.8
21 14.06 СЗ 2 10 км ясно +36.6 +9.5 19 +35 +35 очень
жарко
1001.4 1001.2
03 15.06 штиль 0 10 км ясно +33.0 +15.5 35 +35 +37 душно 1001.4 1001.2
06 15.06 СЗ 2 10 км ясно +39.4 +13.4 21 +39 +53 опасность
солнечного
удара
1003.0 1002.8 +30.6
09 15.06 СЗ 3 10 км ясно +46.0 +7.8 10 +44 +62 опасность
перегрева
1002.8 1002.6
12 15.06 СЗ 3 10 км ясно +47.0 +7.4 10 +45 +55 опасность
перегрева
1001.0 1000.8
15 15.06 ЮВ 2 10 км ясно +42.2 +11.0 16 +41 +42 опасность
перегрева
1000.6 1000.4
21 15.06 З 2 10 км ясно +35.8 +17.8 35 +40 +40 очень
душно
1001.8 1001.6
03 16.06 С 2 10 км ясно +33.4 +11.5 26 +33 +35 жарко 1002.6 1002.4
06 16.06 штиль 0 10 км ясно +39.5 +15.3 24 +41 +60 опасность
перегрева
1003.4 1003.2 +31.6
09 16.06 штиль 0 10 км ясно +46.0 +7.1 10 +44 +73 опасность
перегрева
1003.6 1003.4
12 16.06 штиль 0 10 км ясно +47.0 +6.7 9 +44 +60 опасность
перегрева
1001.6 1001.4
15 16.06 штиль 0 10 км ясно +44.8 +13.2 16 +45 +45 опасность
перегрева
1001.0 1000.8
18 16.06 штиль 0 10 км ясно +40.4 +15.1 23 +42 +42 опасность
перегрева
1002.4 1002.2 +47.6
21 16.06 СЗ 2 10 км ясно +38.0 +17.2 30 +41 +41 опасность
перегрева
1002.6 1002.4
00 17.06 СЗ 2 10 км ясно +35.6 +12.6 25 +36 +36 очень
жарко
1001.6 1001.4
06 17.06 СЗ 2 10 км ясно +39.8 +15.5 24 +41 +55 опасность
перегрева
1004.8 1004.6 +31.0
09 17.06 СЗ 2 10 км ясно +44.8 +10.4 13 +43 +65 опасность
перегрева
1004.8 1004.6
12 17.06 СЗ 2 10 км ясно +46.8 +9.7 11 +45 +57 опасность
перегрева
1003.0 1002.8
15 17.06 СЗ 2 10 км ясно +43.8 +14.0 18 +44 +45 опасность
перегрева
1002.6 1002.4
18 17.06 СЗ 2 10 км ясно +37.6 +13.9 24 +38 +38 очень
жарко
1004.2 1004.0 +47.0
21 17.06 СЗ 3 10 км ясно +36.4 +14.8 28 +38 +38 очень
душно
1004.8 1004.6
00 18.06 СЗ 3 10 км ясно +33.2 +15.8 35 +36 +36 очень
душно
1004.8 1004.6
03 18.06 СЗ 2 10 км ясно +33.2 +16.2 36 +36 +37 очень
душно
1005.2 1005.0
06 18.06 СЗ 3 10 км ясно +39.6 +13.3 21 +40 +51 опасность
солнечного
удара
1006.0 1005.8 +30.6
09 18.06 СЗ 3 10 км ясно +43.6 +7.8 12 +41 +60 опасность
перегрева
1004.8 1004.6
12 18.06 СЗ 3 10 км ясно +44.4 +11.3 14 +43 +53 опасность
перегрева
1003.2 1003.0
15 18.06 СЗ 4 10 км ясно +42.6 +5.4 11 +40 +40 очень
жарко
1002.4 1002.2
18 18.06 СЗ 3 10 км ясно +37.8 +8.3 17 +36 +36 очень
жарко
1003.6 1003.4 +44.8
21 18.06 СЗ 3 10 км ясно +34.6 +8.1 20 +33 +33 жарко 1002.8 1002.6
03 19.06 СЗ 2 10 км ясно +31.8 +10.4 27 +32 +33 жарко 1001.6 1001.4
06 19.06 СЗ 4 10 км ясно +39.0 +10.6 18 +38 +47 очень
жарко
1003.0 1002.8 +29.0
12 19.06 СЗ 8 3000 м пыльный позёмок ясно +42.0 +10.1 15 +40 +43 очень
жарко
1001.2 1001.0
15 19.06 СЗ 9 6000 м пыльный позёмок ясно +40.0 +8.5 15 +38 +38 очень
жарко
1001.0 1000.8
03 20.06 СЗ 3 10 км ясно +30.2 +12.3 33 +31 +32 жарко 1003.0 1002.8
06 20.06 СЗ 7 10 км ясно +37.4 +11.0 20 +36 +40 очень
жарко
1003.4 1003.2 +29.0
09 20.06 СЗ 10 10 км ясно +40.6 +6.4 13 +38 +39 очень
жарко
1003.0 1002.8

 

Местоположение метеостанции Эль-Фао (Ирак): широта 29.98 долгота 48.50 высота над уровнем моря 2 м.

В архиве по умолчанию представлена погода в Эль-Фао за последнюю неделю. Архивные данные за месяц целиком и за предыдущие месяцы, начиная с января 2011 года, Вы можете получить, выбрав интересующий диапазон дат из раскрывающегося списка и нажав кнопку "Ввод!".


*Определитесь, кто Вы:
робот инопланетянин человек

Внимание! Время в таблицах - всемирное. Для получения местного времени необходимо прибавить поправку, которая равна 3 ч.

Смотрите также архив погоды в соседних городах и на ближайших метеорологических станциях:

Погода на Бубияне (Кувейт) (26 км)
Погода в Абадане (Иран) (50 км)
Погода Остров Файлака (Кувейт) (61 км)
Погода на Метеостанции Sabriyah (Кувейт) (68 км)
Погода в Абдали (Кувейт) (78 км)
Погода в Аль-Шуаиба (Кувейт) (80 км)
Погода в Кувейт Сити (Кувейт) (84 км)
Погода в Басре аэропорт (Ирак) (92 км)
Погода на Экспериментальной ферме (Кувейт) (94 км)
Погода в Басре (Ирак) (95 км)

Пояснения к столбцам:

Ветер - указаны скорость ветра в м/с - средняя за 10 мин, порывы в срок и между сроками (в фигурных скобках) и направление, откуда дует ветер: С - северный, СВ - северо-восточный, В - восточный, ЮВ - юго-восточный, Ю - южный, ЮЗ - юго-западный, З - западный, СЗ - северо-западный.
Видимость - горизонтальная дальность видимости в метрах или километрах. При видимости от 1 до 10 км при отсутствии осадков обычно наблюдается дымка, при ухудшении видимости до 1 км и менее - туман. В сухую погоду видимость может ухудшаться дымом, пылью или мглою.
Явления - указаны атмосферные явления, наблюдавшиеся в срок или в последний час перед сроком; фигурными скобками обозначены явления, наблюдавшиеся между сроками (за 1-3 часа до срока); квадратными скобками обозначены град или гололедные отложения с указанием их диаметра в мм.
Облачность - указаны через наклонную черту общая и нижняя облачность в баллах и высота нижней границы облаков в метрах; квадратными скобками обозначены формы облаков: Ci - перистые, Cs - перисто-слоистые, Cc - перисто-кучевые, Ac - высококучевые, As - высокослоистые, Sc - слоисто-кучевые, Ns - слоисто-дождевые, Cu - кучевые, Cb - кучево-дождевые. Подробнее классификацию облаков см. в Атласе облаков (PDF).
T - Температура воздуха - температура, измеренная на высоте 2 м над землей.
Td - Температура точки росы - температура, при понижении до которой содержащийся в воздухе водяной пар достигнет насыщения.
f - Относительная влажность воздуха - влажноcть воздуха, измеренная на высоте 2 м над землей.
Te - Эффективная температура - температура, которую ощущает одетый по сезону человек в тени. Характеристика душности погоды. При расчете учитывается влияние влажности воздуха и скорости ветра на теплоощущения человека.
Tes - Эффективная температура на солнце - температура, которую ощущает человек, с поправкой на солнечный нагрев. Характеристика знойности погоды. Зависит от высоты солнца над горизонтом, облачности и скорости ветра. Ночью, в пасмурную погоду, а также при ветре 12 м/с и более поправка равна нулю.
P - Атмосферное давление - приведенное к уровню моря атмосферное давление.
Po - Атмосферное давление - измеренное на уровне метеостанции атмосферное давление.
Tmin - Минимальная температура - минимум температуры воздуха на высоте 2 м над землей.
Tmax - Максимальная температура - максимум температуры воздуха на высоте 2 м над землей.
R - Количество осадков - Количество выпавших осадков за период времени, мм. При наведении курсора мыши на число - период времени, за который выпало указанное количество осадков.
R24 - Количество осадков - Количество выпавших осадков за 24 часа, мм.
S - Снежный покров - Высота снежного покрова, см. При наведении курсора мыши на число - состояние снежного покрова и степень покрытия местности в баллах.